Location: Overspoor
(51.4747°N, 5.6641°E)
Time: 14:27:20
(UTC+02:00)

RS-15 - Pass Details

Date: 30 June 2022
Orbit: 1881 x 2163 km, 64.8° (Epoch: 13 August)

Event Time Altitude Azimuth Distance (km) Brightness Sun altitude
Rises 23:28:52 0° 309° (NW) 5,684 12.0 -9.9°
Reaches altitude 10° 23:32:25 10° 313° (NW) 4,688 11.4 -10.2°
Maximum altitude 23:44:47 64° 35° (NE) 2,334 8.6 -11.1°
Drops below altitude 10° 23:56:49 10° 116° (ESE) 4,590 9.5 -12.0°
Enters shadow 23:59:25 - 119° (ESE) 5,323 9.8 -12.1°
